STARLINK-35820

Last updated on Wed Dec 31 2025 00:02:06 GMT+0000 (Coordinated Universal Time)

1 66597U 25270K 25364.29267120 .00096854 00000+0 22990-2 0 9993 2 66597 43.0018 91.4631 0001791 280.0793 79.9861 15.40666985 7166
UTC large
Height (km)
Speed (km/s)
/
Latitude / Longitude
Inclination (degrees)
Orbital Period (minutes)
Azimuth
Elevation
Range (km)
Doppler Factor

Next 0 passes for location: London (51.5072 / 0.1276)

Sorry there are no passes over London.